User: anonymous   Login
Location: Los Gatos B&B
(42.6926°N, 77.0646°W)
Time: 17:29:38
(UTC-04:00)
Language:

Cosmos 2263 Rocket - Orbit

View from above orbital plane
View from above orbital plane
View from above satellite
View from above satellite

Ground track
Ground track

The orbit data is extracted from the following two-line orbital elements,

1 22803U 93059B   15182.43948237 -.00000141  00000-0 -46499-4 0  9992
2 22803 070.9907 319.7279 0016020 030.9585 329.2479 14.16714947126768
Epoch (UTC): 01 July 2015 10:32:51
Eccentricity: 0.0016020
inclination: 70.9907°
perigee height: 825 km
apogee height: 848 km
right ascension of ascending node: 319.7279°
argument of perigee: 30.9585°
revolutions per day: 14.16714947
mean anomaly at epoch: 329.2479°
orbit number at epoch: 12676

The dashed part of the orbit path shows where the satellite is in the earth's shadow,  

DLR